SPBPK EPBC-EPBC

Flight info

Callsign SPBPK
Flight time 0h 7m
Altitude 1500
Route EPBC/28 DCT EPMOJ DCT EPMOU DCT AEPMO DCT EPMOI DCT EPMOY EPNCC DCT EPBCP DCT EPWAZ DCT
Aircraft SIRA/L-S/C

Departure

Time 2026-05-06 15:55
Airport Warsaw Babice Airport (EPBC)

Arrival

Time 2026-05-06 16:02
Airport Warsaw Babice Airport (EPBC)
Time Latitude Longitude Altitude Speed Heading
2026-05-06 15:39 52.26021 20.91168 348 ft 0 kts 328°
2026-05-06 15:48 52.26039 20.91160 354 ft 6 kts 31°
2026-05-06 15:48 52.26079 20.91195 348 ft 9 kts 335°
2026-05-06 15:49 52.26144 20.91140 348 ft 12 kts 336°
2026-05-06 15:49 52.26225 20.91072 349 ft 14 kts 336°
2026-05-06 15:49 52.26321 20.90994 349 ft 16 kts 335°
2026-05-06 15:49 52.26428 20.90907 349 ft 18 kts 328°
2026-05-06 15:50 52.26507 20.90844 349 ft 13 kts 333°
2026-05-06 15:50 52.26593 20.90776 349 ft 15 kts 336°
2026-05-06 15:50 52.26691 20.90694 349 ft 16 kts 334°
2026-05-06 15:50 52.26791 20.90612 349 ft 15 kts 333°
2026-05-06 15:51 52.26859 20.90556 350 ft 6 kts 333°
2026-05-06 15:51 52.26908 20.90534 349 ft 9 kts 25°
2026-05-06 15:51 52.26912 20.90650 348 ft 13 kts 101°
2026-05-06 15:51 52.26889 20.90812 348 ft 16 kts 105°
2026-05-06 15:52 52.26898 20.90845 355 ft 0 kts 332°
2026-05-06 15:53 52.26902 20.90837 354 ft 4 kts 280°
2026-05-06 15:53 52.26907 20.90795 348 ft 11 kts 282°
2026-05-06 15:53 52.26952 20.90455 350 ft 50 kts 279°
2026-05-06 15:54 52.27048 20.89780 408 ft 66 kts 281°
2026-05-06 15:54 52.27160 20.89067 601 ft 61 kts 281°
2026-05-06 15:54 52.27267 20.88378 627 ft 71 kts 285°
2026-05-06 15:54 52.27393 20.87558 693 ft 75 kts 281°
2026-05-06 15:55 52.27522 20.86811 935 ft 64 kts 285°
2026-05-06 15:55 52.27688 20.86061 1001 ft 80 kts 307°
2026-05-06 15:55 52.28236 20.85862 1120 ft 90 kts 11°
2026-05-06 15:55 52.28798 20.86404 1206 ft 97 kts 32°
2026-05-06 15:56 52.29308 20.87046 1279 ft 97 kts 35°
2026-05-06 15:56 52.29831 20.87792 1324 ft 92 kts 38°
2026-05-06 15:56 52.30299 20.88496 1436 ft 92 kts 44°
2026-05-06 15:56 52.30757 20.89253 1594 ft 93 kts 46°
2026-05-06 15:57 52.31201 20.90021 1696 ft 100 kts 46°
2026-05-06 15:57 52.31651 20.90902 1828 ft 98 kts 63°
2026-05-06 15:57 52.31730 20.91974 1928 ft 99 kts 109°
2026-05-06 15:57 52.31520 20.93037 1973 ft 97 kts 120°
2026-05-06 15:58 52.31250 20.94055 1938 ft 99 kts 124°
2026-05-06 15:58 52.30920 20.95081 1894 ft 103 kts 129°
2026-05-06 15:58 52.30524 20.96022 1896 ft 100 kts 134°
2026-05-06 15:58 52.30094 20.96941 1872 ft 102 kts 137°
2026-05-06 15:59 52.29641 20.97784 1774 ft 95 kts 143°
2026-05-06 15:59 52.29157 20.98432 1589 ft 86 kts 167°
2026-05-06 15:59 52.28616 20.98507 1464 ft 74 kts 200°
2026-05-06 15:59 52.28180 20.98137 1309 ft 72 kts 224°
2026-05-06 16:00 52.27813 20.97579 1185 ft 69 kts 226°
2026-05-06 16:00 52.27477 20.97063 1126 ft 67 kts 225°
2026-05-06 16:00 52.27103 20.96526 1082 ft 71 kts 228°
2026-05-06 16:00 52.26766 20.96002 1016 ft 65 kts 224°
2026-05-06 16:01 52.26460 20.95444 901 ft 67 kts 246°
2026-05-06 16:01 52.26422 20.94709 801 ft 67 kts 272°
2026-05-06 16:01 52.26502 20.93970 684 ft 65 kts 272°
2026-05-06 16:01 52.26600 20.93238 610 ft 65 kts 265°
2026-05-06 16:02 52.26667 20.92506 521 ft 65 kts 276°
2026-05-06 16:02 52.26758 20.91817 389 ft 58 kts 276°
2026-05-06 16:02 52.26841 20.91241 353 ft 44 kts 276°
2026-05-06 16:02 52.26865 20.91049 348 ft 0 kts 285°
2026-05-06 16:03 52.26868 20.91033 348 ft 11 kts 283°
2026-05-06 16:03 52.26920 20.90648 351 ft 56 kts 282°
2026-05-06 16:03 52.27014 20.89932 494 ft 62 kts 280°
2026-05-06 16:04 52.27104 20.89232 699 ft 66 kts 281°
2026-05-06 16:04 52.27261 20.88496 817 ft 70 kts 291°
2026-05-06 16:04 52.27414 20.87716 988 ft 67 kts 275°
2026-05-06 16:04 52.27511 20.86906 1063 ft 80 kts 284°
2026-05-06 16:05 52.27949 20.86331 1241 ft 88 kts 345°
2026-05-06 16:05 52.28544 20.86627 1380 ft 95 kts 32°
2026-05-06 16:05 52.29099 20.87321 1468 ft 99 kts 36°
2026-05-06 16:05 52.29623 20.88077 1603 ft 101 kts 41°
2026-05-06 16:06 52.30152 20.88861 1689 ft 110 kts 40°
2026-05-06 16:06 52.30750 20.89736 1688 ft 117 kts 41°
2026-05-06 16:06 52.31357 20.90608 1676 ft 116 kts 25°
2026-05-06 16:06 52.32128 20.90826 1673 ft 113 kts
2026-05-06 16:07 52.32910 20.91018 1675 ft 113 kts
2026-05-06 16:07 52.33681 20.91172 1684 ft 113 kts
2026-05-06 16:07 52.34465 20.91317 1678 ft 111 kts 357°
2026-05-06 16:07 52.35160 20.91005 1662 ft 99 kts 323°
2026-05-06 16:08 52.35608 20.90265 1668 ft 93 kts 304°
2026-05-06 16:08 52.36055 20.89485 1668 ft 94 kts 306°
2026-05-06 16:08 52.36488 20.88678 1671 ft 95 kts 295°
2026-05-06 16:08 52.36738 20.87684 1685 ft 95 kts 285°
2026-05-06 16:09 52.36969 20.86671 1681 ft 94 kts 284°
2026-05-06 16:09 52.37213 20.85689 1685 ft 93 kts 285°
2026-05-06 16:09 52.37462 20.84715 1682 ft 92 kts 285°
2026-05-06 16:09 52.37701 20.83758 1690 ft 92 kts 284°
2026-05-06 16:10 52.37952 20.82783 1684 ft 92 kts 284°
2026-05-06 16:10 52.38192 20.81844 1680 ft 89 kts 284°
2026-05-06 16:10 52.38436 20.80919 1678 ft 88 kts 285°
2026-05-06 16:10 52.38680 20.79979 1682 ft 91 kts 285°
2026-05-06 16:11 52.38915 20.79001 1680 ft 93 kts 284°
2026-05-06 16:11 52.39154 20.78016 1694 ft 93 kts 284°
2026-05-06 16:11 52.39402 20.77020 1620 ft 97 kts 285°
2026-05-06 16:11 52.39652 20.75981 1531 ft 99 kts 284°
2026-05-06 16:12 52.39904 20.74977 1522 ft 94 kts 284°
2026-05-06 16:12 52.40152 20.74000 1523 ft 93 kts 285°
2026-05-06 16:12 52.40331 20.73041 1545 ft 81 kts 266°
2026-05-06 16:12 52.40382 20.72160 1532 ft 83 kts 271°
2026-05-06 16:13 52.40498 20.71207 1468 ft 88 kts 278°
2026-05-06 16:13 52.40680 20.70247 1464 ft 88 kts 284°
2026-05-06 16:13 52.40946 20.69319 1412 ft 91 kts 289°
2026-05-06 16:13 52.41182 20.68378 1411 ft 87 kts 282°
2026-05-06 16:14 52.41348 20.67471 1433 ft 85 kts 280°
2026-05-06 16:14 52.41638 20.66593 1420 ft 92 kts 302°
2026-05-06 16:14 52.42200 20.65988 1394 ft 102 kts 334°
2026-05-06 16:14 52.42893 20.66128 1439 ft 105 kts 35°
2026-05-06 16:15 52.43249 20.67096 1451 ft 102 kts 79°
2026-05-06 16:15 52.43420 20.68248 1427 ft 103 kts 79°
2026-05-06 16:15 52.43582 20.69380 1349 ft 103 kts 77°
2026-05-06 16:15 52.44026 20.70172 1236 ft 93 kts
2026-05-06 16:16 52.44635 20.70119 1194 ft 85 kts 340°
2026-05-06 16:16 52.45170 20.69824 1119 ft 77 kts 309°
2026-05-06 16:16 52.45385 20.69092 889 ft 72 kts 277°
2026-05-06 16:16 52.45395 20.68317 672 ft 63 kts 263°
2026-05-06 16:17 52.45339 20.67623 461 ft 60 kts 263°
2026-05-06 16:17 52.45284 20.67003 349 ft 51 kts 263°
2026-05-06 16:17 52.45236 20.66488 331 ft 39 kts 264°
2026-05-06 16:17 52.45204 20.66085 333 ft 43 kts 263°
2026-05-06 16:18 52.45136 20.65440 360 ft 67 kts 259°
2026-05-06 16:18 52.45054 20.64693 506 ft 65 kts 266°
2026-05-06 16:18 52.44970 20.63927 642 ft 73 kts 257°
2026-05-06 16:18 52.44875 20.63139 919 ft 65 kts 262°
2026-05-06 16:19 52.44819 20.62386 1069 ft 71 kts 256°
2026-05-06 16:19 52.45066 20.61605 1123 ft 90 kts 317°
2026-05-06 16:19 52.45698 20.61419 1247 ft 96 kts 349°
2026-05-06 16:19 52.46401 20.61513 1287 ft 109 kts 21°
2026-05-06 16:20 52.46904 20.62409 1355 ft 106 kts 71°
2026-05-06 16:20 52.47096 20.63518 1431 ft 104 kts 82°
2026-05-06 16:20 52.47212 20.64673 1431 ft 104 kts 90°
2026-05-06 16:20 52.47408 20.65931 1195 ft 117 kts 52°
2026-05-06 16:21 52.47861 20.66906 1298 ft 102 kts 56°
2026-05-06 16:21 52.48288 20.67811 1415 ft 101 kts 52°
2026-05-06 16:21 52.48741 20.68733 1532 ft 105 kts 51°
2026-05-06 16:21 52.49198 20.69700 1661 ft 110 kts 52°
2026-05-06 16:22 52.49665 20.70707 1787 ft 114 kts 52°
2026-05-06 16:22 52.50153 20.71750 1802 ft 117 kts 52°
2026-05-06 16:22 52.50648 20.72804 1793 ft 114 kts 52°
2026-05-06 16:22 52.51122 20.73809 1792 ft 110 kts 52°
2026-05-06 16:23 52.51587 20.74818 1780 ft 110 kts 52°
2026-05-06 16:23 52.52053 20.75811 1786 ft 111 kts 52°
2026-05-06 16:23 52.52533 20.76835 1786 ft 115 kts 52°
2026-05-06 16:23 52.53019 20.77871 1790 ft 115 kts 52°
2026-05-06 16:24 52.53364 20.79022 1776 ft 111 kts 98°
2026-05-06 16:24 52.53115 20.80131 1786 ft 102 kts 122°
2026-05-06 16:24 52.52844 20.81194 1786 ft 103 kts 121°
2026-05-06 16:24 52.52568 20.82282 1785 ft 104 kts 121°
2026-05-06 16:25 52.52290 20.83369 1785 ft 102 kts 121°
2026-05-06 16:25 52.52020 20.84447 1777 ft 101 kts 121°
2026-05-06 16:25 52.51749 20.85516 1784 ft 102 kts 122°
2026-05-06 16:25 52.51492 20.86608 1784 ft 103 kts 121°
2026-05-06 16:26 52.51236 20.87697 1787 ft 102 kts 121°
2026-05-06 16:26 52.50942 20.88779 1778 ft 105 kts 120°
2026-05-06 16:26 52.50639 20.89837 1782 ft 104 kts 121°
2026-05-06 16:26 52.50347 20.90926 1784 ft 105 kts 122°
2026-05-06 16:27 52.50075 20.92047 1781 ft 105 kts 120°
2026-05-06 16:27 52.49799 20.93152 1781 ft 104 kts 121°
2026-05-06 16:27 52.49521 20.94262 1786 ft 107 kts 120°
2026-05-06 16:27 52.49234 20.95384 1791 ft 106 kts 121°
2026-05-06 16:28 52.48935 20.96479 1788 ft 104 kts 129°
2026-05-06 16:28 52.48410 20.97208 1792 ft 98 kts 153°
2026-05-06 16:28 52.47866 20.97891 1793 ft 98 kts 152°
2026-05-06 16:28 52.47340 20.98573 1792 ft 98 kts 150°
2026-05-06 16:29 52.46810 20.99263 1787 ft 97 kts 152°
2026-05-06 16:29 52.46296 20.99955 1779 ft 94 kts 151°
2026-05-06 16:29 52.45799 21.00633 1773 ft 92 kts 150°
2026-05-06 16:29 52.45302 21.01295 1775 ft 92 kts 151°
2026-05-06 16:30 52.44807 21.01945 1775 ft 90 kts 151°
2026-05-06 16:30 52.44483 21.02368 1773 ft 89 kts 151°
2026-05-06 16:30 52.43845 21.03218 1774 ft 88 kts 152°
2026-05-06 16:30 52.43368 21.03844 1778 ft 89 kts 151°
2026-05-06 16:31 52.42889 21.04463 1777 ft 88 kts 156°
2026-05-06 16:31 52.42335 21.04769 1776 ft 84 kts 172°
2026-05-06 16:31 52.41781 21.05079 1782 ft 85 kts 171°
2026-05-06 16:31 52.41203 21.05409 1791 ft 90 kts 172°
2026-05-06 16:32 52.40595 21.05722 1792 ft 93 kts 172°
2026-05-06 16:32 52.39978 21.06036 1788 ft 93 kts 171°
2026-05-06 16:32 52.39359 21.06346 1786 ft 92 kts 171°
2026-05-06 16:32 52.38755 21.06661 1787 ft 90 kts 171°
2026-05-06 16:33 52.38164 21.06974 1792 ft 91 kts 171°
2026-05-06 16:33 52.37555 21.07297 1790 ft 92 kts 171°
2026-05-06 16:33 52.36947 21.07633 1786 ft 92 kts 171°
2026-05-06 16:34 52.35764 21.08328 1777 ft 89 kts 169°
2026-05-06 16:34 52.35181 21.08663 1777 ft 88 kts 171°
2026-05-06 16:34 52.34583 21.08916 1739 ft 89 kts 181°
2026-05-06 16:34 52.33983 21.08990 1756 ft 86 kts 183°
2026-05-06 16:35 52.33435 21.09390 1751 ft 99 kts 133°
2026-05-06 16:35 52.33552 21.10465 1726 ft 111 kts 30°
2026-05-06 16:35 52.34164 21.10353 1738 ft 82 kts 288°
2026-05-06 16:35 52.33996 21.09624 1683 ft 82 kts 205°
2026-05-06 16:36 52.33418 21.09703 1710 ft 86 kts 175°
2026-05-06 16:36 52.32831 21.09917 1718 ft 84 kts 180°
2026-05-06 16:36 52.32270 21.10050 1770 ft 80 kts 181°
2026-05-06 16:36 52.31711 21.10179 1765 ft 83 kts 180°
2026-05-06 16:37 52.31174 21.10602 1776 ft 86 kts 162°
2026-05-06 16:37 52.30653 21.10482 1735 ft 81 kts 225°
2026-05-06 16:37 52.30454 21.09630 1759 ft 83 kts 261°
2026-05-06 16:37 52.30432 21.08708 1763 ft 84 kts 261°
2026-05-06 16:38 52.30479 21.07763 1776 ft 92 kts 302°
2026-05-06 16:38 52.31099 21.07905 1801 ft 111 kts 62°
2026-05-06 16:38 52.30891 21.08771 1787 ft 82 kts 188°
2026-05-06 16:38 52.30661 21.08073 1794 ft 82 kts 263°
2026-05-06 16:39 52.30268 21.07825 1782 ft 96 kts 139°
2026-05-06 16:39 52.30553 21.08687 1762 ft 107 kts 348°
2026-05-06 16:39 52.30797 21.07941 1744 ft 82 kts 255°
2026-05-06 16:39 52.30703 21.07008 1726 ft 83 kts 255°
2026-05-06 16:40 52.30575 21.06097 1697 ft 82 kts 251°
2026-05-06 16:40 52.30396 21.05254 1740 ft 78 kts 248°
2026-05-06 16:40 52.30219 21.04422 1749 ft 77 kts 249°
2026-05-06 16:40 52.30028 21.03588 1746 ft 79 kts 246°
2026-05-06 16:41 52.29817 21.02758 1787 ft 78 kts 245°
2026-05-06 16:41 52.29565 21.01957 1783 ft 81 kts 239°
2026-05-06 16:41 52.29291 21.01159 1774 ft 82 kts 240°
2026-05-06 16:41 52.29010 21.00349 1799 ft 82 kts 237°
2026-05-06 16:42 52.28711 20.99597 1776 ft 74 kts 237°
2026-05-06 16:42 52.28443 20.98910 1695 ft 70 kts 233°
2026-05-06 16:42 52.28139 20.98263 1618 ft 72 kts 233°
2026-05-06 16:42 52.27860 20.97634 1550 ft 66 kts 235°
2026-05-06 16:43 52.27523 20.97078 1416 ft 69 kts 225°
2026-05-06 16:43 52.27185 20.96556 1297 ft 68 kts 229°
2026-05-06 16:43 52.26863 20.96028 1200 ft 65 kts 223°
2026-05-06 16:43 52.26512 20.95510 1094 ft 65 kts 237°
2026-05-06 16:44 52.26399 20.94813 938 ft 66 kts 272°
2026-05-06 16:44 52.26449 20.94090 858 ft 65 kts 278°
2026-05-06 16:44 52.26535 20.93324 815 ft 67 kts 285°
2026-05-06 16:44 52.26645 20.92611 579 ft 61 kts 281°
2026-05-06 16:45 52.26735 20.91979 387 ft 53 kts 279°
2026-05-06 16:45 52.26804 20.91491 348 ft 37 kts 278°
2026-05-06 16:45 52.26843 20.91145 352 ft 27 kts 281°
2026-05-06 16:45 52.26882 20.90843 348 ft 26 kts 283°
2026-05-06 16:46 52.26917 20.90596 348 ft 10 kts 281°
2026-05-06 16:46 52.26884 20.90532 348 ft 10 kts 162°
2026-05-06 16:46 52.26814 20.90590 348 ft 12 kts 155°
2026-05-06 16:46 52.26732 20.90659 352 ft 14 kts 151°
2026-05-06 16:47 52.26639 20.90735 348 ft 16 kts 158°
2026-05-06 16:47 52.26543 20.90814 348 ft 17 kts 153°
2026-05-06 16:47 52.26428 20.90909 348 ft 20 kts 154°
2026-05-06 16:47 52.26317 20.90998 348 ft 15 kts 151°
2026-05-06 16:48 52.26219 20.91080 348 ft 15 kts 154°
2026-05-06 16:48 52.26127 20.91156 348 ft 15 kts 156°
2026-05-06 16:48 52.26067 20.91201 348 ft 8 kts 180°
2026-05-06 16:48 52.26034 20.91136 348 ft 0 kts 243°